Location: Fiddletown
(38.4917°N, 120.6633°W)
Time: 10:06:36
(UTC-08:00)

Envisat - Visible Passes

Search period start: 01 March 2017 00:00
Search period end: 11 March 2017 00:00
Orbit: 764 x 766 km, 98.2° (Epoch: 01 March)

Date Brightness Start Highest point End Pass type
(mag) Time Alt. Az. Time Alt. Az. Time Alt. Az.
01 Mar 3.4 19:52:51 45° NE 19:52:51 45° NE 19:56:56 10° N visible
01 Mar 5.7 21:33:03 15° WNW 21:33:03 15° WNW 21:34:41 10° NW visible
02 Mar 4.1 19:15:34 23° ENE 19:15:38 23° ENE 19:19:31 10° NNE visible
02 Mar 4.5 20:55:46 33° WNW 20:55:46 33° WNW 20:59:09 10° NNW visible
03 Mar 4.9 18:38:51 10° ENE 18:39:25 10° ENE 18:39:58 10° NE visible
03 Mar 3.2 20:18:30 62° N 20:18:30 62° N 20:22:42 10° NNW visible
04 Mar 3.5 19:41:13 38° ENE 19:41:13 38° ENE 19:45:44 10° N visible
04 Mar 5.3 21:21:25 21° WNW 21:21:25 21° WNW 21:24:06 10° NW visible
05 Mar 4.4 19:03:56 18° ENE 19:04:40 18° ENE 19:08:04 10° NNE visible
05 Mar 3.9 20:44:08 46° WNW 20:44:08 46° WNW 20:48:13 10° NNW visible
06 Mar 2.9 20:06:52 67° NE 20:06:52 67° NE 20:11:37 10° N visible
06 Mar 5.9 21:47:04 12° WNW 21:47:04 12° WNW 21:48:03 10° WNW visible
07 Mar 3.7 19:29:36 30° E 19:30:04 31° ENE 19:34:29 10° N visible
07 Mar 4.8 21:09:47 27° W 21:09:47 27° W 21:13:23 10° NW visible
08 Mar 4.6 18:52:19 13° E 18:53:45 14° ENE 18:56:25 10° NNE visible
08 Mar 3.3 20:32:31 64° WNW 20:32:31 64° WNW 20:37:14 10° NNW visible
09 Mar 3.0 19:55:15 53° E 19:55:32 54° ENE 20:00:30 10° N visible
09 Mar 5.5 21:35:27 16° W 21:35:27 16° W 21:37:56 10° NW visible
10 Mar 4.0 19:17:59 23° E 19:19:05 25° ENE 19:23:10 10° NNE visible
10 Mar 4.3 20:58:11 36° W 20:58:11 36° W 21:02:34 10° NNW visible
